Regional Weather Roundup
Issued by NWS

Home | Current Version | Previous Version | Graphics & Text | Print | Product List | Glossary On
Versions: 1 2 3 4 5 6 7 8 9 10 11 12 13 14 15 16 17 18 19 20 21 22 23 24 25 26 27 28 29 30 31 32 33 34 35 36 37 38 39 40 41 42 43 44 45 46 47 48 49 50
000
ASUS45 KBOU 311707
RWRCO

WEATHER ROUNDUP FOR COLORADO
NATIONAL WEATHER SERVICE DENVER/BOULDER CO
1100 AM MDT MON AUG 31 2015

NOTE: "FAIR" INDICATES FEW OR NO CLOUDS BELOW 12000 FEET WITH NO
SIGNIFICANT WEATHER AND/OR OBSTRUCTIONS TO VISIBILITY.

COZ001>005-013-030-031-311800-
...NORTHWEST COLORADO...

CITY           SKY/WX    TMP DP  RH WIND       PRES   REMARKS
CRAIG          PTSUNNY   71  51  49 NE7       30.25R
HAYDEN         NOT AVBL
MEEKER         PTSUNNY   66  54  65 NE5       30.26S
MOUNT WERNER   NOT AVBL
STEAMBOAT SPGS PTSUNNY   62  52  70 SW3       30.30S
WALDEN         PTSUNNY   59  45  58 S9        30.36S
$$

COZ006>008-011-311800-
...WEST CENTRAL VALLEYS...

CITY           SKY/WX    TMP DP  RH WIND       PRES   REMARKS
GRAND JUNCTION PTSUNNY   67  60  78 S8        30.20R
MONTROSE       CLOUDY    66  56  70 CALM      30.28R
EAGLE          MOSUNNY   64  54  68 CALM      30.32S
RIFLE          CLOUDY    66  56  70 E3        30.25R
DELTA          RAIN      72  57  58 E6        30.23S
NUCLA          CLOUDY    73  46  38 CALM      30.28R
$$

COZ017>023-064>068-311800-
...SOUTHWEST COLORADO...

CITY           SKY/WX    TMP DP  RH WIND       PRES   REMARKS
DURANGO        PTSUNNY   69  49  48 VRB5      30.29S
CORTEZ         SUNNY     74  51  44 S3        30.25R
PAGOSA SPRINGS PTSUNNY   69  44  41 CALM      30.36S
TELLURIDE      MOSUNNY   63  45  52 CALM      30.46S
WOLF CREEK PAS PTSUNNY   50  41  71 S9G16     30.66S
$$

COZ009-010-012-014-032>034-037-058>063-311800-
...CENTRAL COLORADO...

CITY           SKY/WX    TMP DP  RH WIND       PRES   REMARKS
ASPEN          PTSUNNY   62  50  64 CALM      30.35S
BUENA VISTA    PTSUNNY   70  42  36 SE6       30.34S
COPPER MTN     PTSUNNY   54  41  62 W13       30.62S
BERTHOUD PASS  CLOUDY    43  30  61 NW10G16   30.66S
COTTONWOOD PAS CLOUDY    64  43  45 E3        30.48R
GUNNISON       PTSUNNY   61  48  63 SW5       30.39S
KREMMLING      CLOUDY    61  45  55 CALM      30.37S
LEADVILLE      CLOUDY    58  40  51 NW8       30.47S
MONARCH PASS   MOSUNNY   48  41  76 SW14G22   30.73R
SALIDA         PTSUNNY   73  45  37 NE6       30.38S
SUNLIGHT       CLOUDY    54  48  82 CALM      30.58R
WILKERSON PASS CLOUDY    54  37  54 CALM      30.60R
$$

COZ069>075-311800-
...SAN LUIS VALLEY/SANGRE DE CRISTO MOUNTAINS...

CITY           SKY/WX    TMP DP  RH WIND       PRES   REMARKS
ALAMOSA        MOSUNNY   70  46  42 SE5       30.32S
LA VETA PASS   CLOUDY    57  41  54 MISG      30.49R
SAGUACHE       MOSUNNY   68  46  45 S10       30.35S
$$

COZ035-036-038>040-311800-
...NORTHERN COLORADO FRONT RANGE...

CITY           SKY/WX    TMP DP  RH WIND       PRES   REMARKS
DENVER INTL AP CLOUDY    78  48  34 E10       30.14R
DMNS CITY PARK   N/A     78  48  34 E9        30.13S
AURORA         PTSUNNY   77  47  33 E6        30.16S
FRONT RANGE AP PTSUNNY   75  45  33 N10       30.16R
ERIE MUNI ARPT CLOUDY    80  46  29 SE10      30.11S
BOULDER MUN AP CLOUDY    81  48  32 E5        30.12S
CENTENNIAL     CLOUDY    76  47  35 SW3       30.17R
BROOMFIELD     PTSUNNY   77  46  33 SE5       30.16R
FORT COLLINS   CLOUDY    79  52  38 SE6       30.11S
LONGMONT       CLOUDY    82  51  33 E8        30.12S
$$

COZ041-046-047-076>085-087-088-311800-
...PIKES PEAK/PALMER DIVIDE AND SOUTHERN FOOTHILLS...

CITY           SKY/WX    TMP DP  RH WIND       PRES   REMARKS
COLO. SPRINGS  CLOUDY    77  46  33 NE8       30.20R
A. F. ACADEMY  CLOUDY    75  44  33 NE10      30.21F
ELLICOTT       CLOUDY     1  32 100 NE15      30.17F WCI -18
FALCON         CLOUDY    74  44  34 MISG      30.26F
FORT CARSON    CLOUDY    77  48  35 NE8       30.16R
LIMON          LGT RAIN  81  48  31 N16G25    30.14R
MONUMENT HILL  CLOUDY    70  43  37 CALM      30.27S
TRINIDAD       MOSUNNY   87  43  21 N12G20    30.14S
$$

COZ042>045-048>051-090-091-311800-
...NORTHEAST COLORADO...

CITY           SKY/WX    TMP DP  RH WIND       PRES   REMARKS
GREELEY ARPT   CLOUDY    75  54  46 NW3       30.10R
AKRON          PTSUNNY   82  50  32 N12G21    30.08S
BURLINGTON     SUNNY     84  51  31 N14       30.02S
WRAY           SUNNY     92  46  20 N21G29    29.99S
STERLING       PTSUNNY   79  54  41 E7        30.03S
HOLYOKE        SUNNY     91  48  22 N16G26    30.00S
FORT MORGAN    PTSUNNY   84  45  25 N13       30.08S
$$

COZ086-089-092>099-311800-
...SOUTHEAST COLORADO...

CITY           SKY/WX    TMP DP  RH WIND       PRES   REMARKS
PUEBLO         PTSUNNY   83  50  31 E6        30.08R
LA JUNTA       SUNNY     92  48  22 N18G24    30.02R
LAMAR          SUNNY     81  56  42 N5        29.96S HAZE
SPRINGFIELD    NOT AVBL
$$




USA.gov is the U.S. government's official web portal to all federal, state and local government web resources and services.